Location: Caltech
(34.1382°N, 118.1253°W)
Time: 04:35:18
(UTC-08:00)

COSMOS 2428 - Visible Passes

Search period start: 24 February 2017 00:00
Search period end: 06 March 2017 00:00
Orbit: 848 x 855 km, 70.9° (Epoch: 24 February)

Date Brightness Start Highest point End Pass type
(mag) Time Alt. Az. Time Alt. Az. Time Alt. Az.
24 Feb 3.9 18:30:27 10° N 18:34:47 22° ENE 18:37:44 15° E visible
24 Feb 3.6 20:13:50 10° NW 20:19:14 46° WSW 20:19:52 44° SW visible
25 Feb 3.9 18:18:23 10° N 18:22:43 22° ENE 18:27:01 10° ESE visible
25 Feb 3.6 20:01:46 10° NW 20:07:09 45° WSW 20:09:38 29° SSW visible
26 Feb 3.9 18:06:18 10° N 18:10:38 22° ENE 18:14:57 10° ESE visible
26 Feb 3.7 19:49:42 10° NW 19:55:05 45° WSW 19:59:51 13° S visible
27 Feb 3.7 19:37:37 10° NW 19:43:01 45° WSW 19:48:23 10° S visible
28 Feb 3.8 19:25:33 10° NW 19:30:57 45° WSW 19:36:19 10° S visible
01 Mar 3.8 19:13:29 10° NW 19:18:52 45° WSW 19:24:14 10° S visible
02 Mar 3.9 19:01:25 10° NW 19:06:48 45° WSW 19:12:10 10° S visible
03 Mar 3.9 18:49:20 10° NW 18:54:43 45° WSW 19:00:05 10° S visible
04 Mar 4.0 18:37:17 10° NW 18:42:39 44° WSW 18:48:01 10° S visible
05 Mar 4.1 18:25:12 10° NW 18:30:34 44° WSW 18:35:56 10° S visible
